Regional Weather Roundup
Issued by NWS

Home | Current Version | Previous Version | Graphics & Text | Print | Product List | Glossary On
Versions: 1 2 3 4 5 6 7 8 9 10 11 12 13 14 15 16 17 18 19 20 21 22 23 24 25 26 27 28 29 30 31 32 33 34 35 36 37 38 39 40 41 42 43 44 45 46 47 48 49 50
755
ASUS43 KDTX 241401
RWRMI
MICHIGAN HOURLY REGIONAL WEATHER ROUNDUP
NATIONAL WEATHER SERVICE DETROIT/PONTIAC MI
1000 AM EDT TUE APR 24 2018

NOTE: "FAIR" INDICATES FEW OR NO CLOUDS BELOW 12,000 FEET WITH NO
SIGNIFICANT WEATHER AND/OR OBSTRUCTION TO VISIBILITY.

MIZ047>049-052>055-059>063-066>070-074>076-081>083-241500-
SOUTHEAST LOWER MICHIGAN

CITY           SKY/WX    TMP DP  RH WIND       PRES   REMARKS
ADRIAN         CLOUDY    53  49  86 E15       30.10F
ALMA           CLOUDY    55  50  83 SE5       30.12F
ANN ARBOR      CLOUDY    53  50  89 E10       30.11F FOG
BAD AXE        CLOUDY    59  44  56 E6        30.14F
CARO           PTSUNNY   59  46  61 SE9       30.12F
DETROIT CITY   CLOUDY    56  42  59 SE10      30.12F
DETROIT        CLOUDY    56  46  69 E7        30.12F
FLINT          CLOUDY    55  47  74 SE10      30.12F
GROSSE ILE     CLOUDY    53  46  76 E3        30.11F
HILLSDALE      CLOUDY    54  46  76 E15G22    30.07S
HOWELL         CLOUDY    55  48  78 SE13      30.11F

CITY           SKY/WX    TMP DP  RH WIND       PRES   REMARKS
JACKSON        CLOUDY    54  48  80 E15G24    30.09F
LAMBERTVILLE   CLOUDY    52  48  89 E6        30.10F FOG
LANSING        CLOUDY    54  49  83 SE16      30.11S
LAPEER         CLOUDY    56  46  67 SE5       30.13F
MASON          CLOUDY    55  47  72 SE7       30.10F
MT. CLEMENS    CLOUDY    58  51  78 E12       30.12F
PONTIAC        CLOUDY    58  45  62 E14       30.10F
PORT HOPE        N/A     49  45  86 SE3       30.13F
PORT HURON     PTSUNNY   59  43  55 SE10G16   30.14F
TRI CITIES     CLOUDY    57  48  72 S6        30.13F
MIDLAND        CLOUDY    56  47  71 SE5       30.12F
TROY           CLOUDY    58  42  54 E7        30.14F
SAGINAW HB     CLOUDY    57  46  67 SE5       30.11F
$$
MIZ043>046-050>051-056>058-064>065-071>073-077>080-241500-
SOUTHWEST LOWER MICHIGAN

CITY           SKY/WX    TMP DP  RH WIND       PRES   REMARKS
BATTLE CREEK   CLOUDY    55  47  74 E9        30.08F
BENTON HARBOR  CLOUDY    56  48  74 CALM      30.06F
BIG RAPIDS     CLOUDY    55  44  67 S6        30.11S
COLDWATER      CLOUDY    55  48  79 E10       30.07S
HOLLAND        LGT RAIN  56  49  77 SE8       30.09S
GRAND RAPIDS   CLOUDY    54  48  80 SE5       30.09F
IONIA          CLOUDY    55  47  76 E6        30.09F
KALAMAZOO      CLOUDY    57  47  69 E9        30.08S
LUDINGTON      CLOUDY    55  46  69 CALM      30.09F
MARSHALL       CLOUDY    54  49  82 E7        30.08F
MOUNT PLEASANT CLOUDY    56  47  72 SE3       30.11F
MUSKEGON       CLOUDY    57  47  69 SE8       30.09S
SOUTH HAVEN    CLOUDY    56  48  74 SE5       30.07F
$$
MIZ016>042-241500-
NORTHERN LOWER MICHIGAN

CITY           SKY/WX    TMP DP  RH WIND       PRES   REMARKS
ALPENA         PTSUNNY   49  37  63 CALM      30.13S
BEAVER ISLAND  FAIR      47  33  57 CALM      30.11F
BELLAIRE       FAIR      51  37  60 CALM      30.12S
CADILLAC       FAIR      53  44  71 CALM      30.10F
CHARLEVOIX     FAIR      44  35  68 CALM      30.14S
FRANKFORT      FAIR      57  45  64 CALM      30.10S
GAYLORD        FAIR      49  40  71 S6        30.11S
HARBOR SPRINGS FAIR      50  32  50 CALM      30.11S
HOUGHTON LAKE  LGT RAIN  53  44  71 S3        30.13S
MANISTEE       FAIR      56  42  59 E3        30.09F
OSCODA         LGT RAIN  46  36  67 CALM      30.14S
PELLSTON       FAIR      47  31  53 CALM      30.11F
ROGERS CITY    FAIR      50  34  53 CALM      30.13
TRAVERSE CITY  CLOUDY    59  43  55 SE6       30.09F
$$
MIZ007>008-015-241500-
EASTERN UPPER MICHIGAN

CITY           SKY/WX    TMP DP  RH WIND       PRES   REMARKS
KINROSS        FAIR      43  25  49 CALM      30.11F
MACKINAC ISLAN FAIR      43  29  59 E5        30.11S
NEWBERRY       FAIR      45  25  45 CALM      30.10F
S. S. MARIE    FAIR      45  27  49 CALM      30.11F
MUNISING         N/A     41  34  76 N6        30.12S
$$
MIZ004>006-011>014-085-241500-
CENTRAL UPPER MICHIGAN

CITY           SKY/WX    TMP DP  RH WIND       PRES   REMARKS
MANISTIQUE     FAIR      49  27  42 CALM      30.10F
ESCANABA       FAIR      55  28  35 N8        30.11S
MENOMINEE      FAIR      51  33  50 CALM      30.11S
SAWYER-GWINN   SUNNY     43  32  65 N10       30.12S
$$
MIZ001>003-009>011-084-241500-
WESTERN UPPER MICHIGAN

CITY           SKY/WX    TMP DP  RH WIND       PRES   REMARKS
IRON MOUNTAIN  FAIR      53  29  39 N5        30.09F
HOUGHTON       FAIR      47  28  47 NE7       30.15S
COPPER HARBOR    N/A     39  30  70 N8        30.17R WCI  33
IRONWOOD       FAIR      47  31  53 NE10      30.18R
$$

ABBREVIATIONS USED IN REMARKS
   TC - TEMPERATURE IN CELSIUS
  WCI - WIND CHILL INDEX
   HX - HEAT INDEX
  VSB - VISIBILITY





USA.gov is the U.S. government's official web portal to all federal, state and local government web resources and services.